CW5554 Weather Reports


time (UTC)temp
C
wind
direction
speed
KPH
gust
KPH
rain 1hr
cm
rain 24hr
cm
rain mn
cm
humidity
%
barometer
mb
20260502161005 13 238 1.6 6.4 0.20 0.20 0.20 90 1011.4
20260502160507 14 231 0.0 9.7 0.18 0.18 0.18 89 1011.6
20260502152005 18 150 8.0 14.5 0.00 0.00 0.00 70 1011.8
20260502151505 18 159 8.0 14.5 0.00 0.00 0.00 66 1011.9
20260502151005 18 153 1.6 14.5 0.00 0.00 0.00 62 1011.9
20260502150506 19 161 1.6 11.3 0.00 0.00 0.00 61 1011.9
20260502130505 19 171 3.2 8.0 0.00 0.00 0.00 55 1013.6
20260502123505 18 113 4.8 12.9 0.00 0.00 0.00 59 1014.1
20260502123005 18 154 9.7 12.9 0.00 0.00 0.00 60 1014.2
20260502122505 18 152 0.0 12.9 0.00 0.00 0.00 60 1014.2
20260502121505 18 165 9.7 11.3 0.00 0.00 0.00 58 1014.3
20260502121005 18 167 1.6 8.0 0.00 0.00 0.00 59 1014.4
20260502120506 18 162 3.2 8.0 0.00 0.00 0.00 60 1014.4
20260502115506 18 193 4.8 9.7 0.00 0.00 0.00 59 1014.6
20260502115005 18 167 4.8 9.7 0.00 0.00 0.00 56 1014.7
20260502114505 18 165 0.0 8.0 0.00 0.00 0.00 59 1014.8
20260502114005 18 152 3.2 9.7 0.00 0.00 0.00 61 1014.9
20260502113005 18 192 8.0 9.7 0.00 0.00 0.00 62 1015.2
20260502112505 17 165 6.4 11.3 0.00 0.00 0.00 61 1015.2
20260502112005 17 160 0.0 11.3 0.00 0.00 0.00 63 1015.1
20260502111505 17 192 4.8 8.0 0.00 0.00 0.00 64 1015.1
20260502111005 17 145 3.2 6.4 0.00 0.00 0.00 63 1015.2
20260502110505 17 151 0.0 11.3 0.00 0.00 0.00 63 1015.2
20260502105505 17 159 0.0 11.3 0.00 0.00 0.00 65 1015.5
20260502105005 17 215 1.6 11.3 0.00 0.00 0.00 66 1015.6
20260502104505 17 166 0.0 11.3 0.00 0.00 0.00 66 1015.7
20260502104005 16 166 4.8 11.3 0.00 0.00 0.00 69 1015.7
20260502103505 16 169 0.0 8.0 0.00 0.00 0.00 68 1015.7
20260502103007 16 165 1.6 8.0 0.00 0.00 0.00 69 1015.8
20260502102505 16 219 4.8 9.7 0.00 0.00 0.00 72 1015.9
20260502102005 16 166 0.0 9.7 0.00 0.00 0.00 70 1015.9
20260502101005 15 160 1.6 9.7 0.00 0.00 0.00 69 1016.1
20260502091505 13 167 4.8 6.4 0.00 0.00 0.00 78 1016.5
20260502091005 12 190 0.0 4.8 0.00 0.00 0.00 78 1016.4
20260502090505 12 183 0.0 8.0 0.00 0.00 0.00 79 1016.5
20260502071505 8 282 1.6 3.2 0.00 0.00 0.00 93 1017.3
20260502071005 8 282 1.6 1.6 0.00 0.00 0.00 93 1017.3
20260502070505 8 282 0.0 0.0 0.00 0.00 0.00 92 1017.2
20260502070005 8 282 0.0 3.2 0.00 0.00 0.00 92 1017.2
20260502065505 8 282 0.0 3.2 0.00 0.00 0.00 92 1017.3
20260502065005 8 282 1.6 3.2 0.00 0.00 0.00 92 1017.3
20260502064505 8 286 1.6 3.2 0.00 0.00 0.00 92 1017.3
20260502064005 8 286 1.6 3.2 0.00 0.00 0.00 92 1017.4
20260502063505 8 287 0.0 1.6 0.00 0.00 0.00 92 1017.4
20260502063005 8 317 0.0 4.8 0.00 0.00 0.00 92 1017.4
20260502062505 8 53 0.0 4.8 0.00 0.00 0.00 92 1017.4
20260502061505 8 53 0.0 0.0 0.00 0.00 0.00 92 1017.2
20260502061005 8 53 0.0 3.2 0.00 0.00 0.00 92 1017.2
20260502060505 8 53 0.0 3.2 0.00 0.00 0.00 92 1017.3
20260502060005 8 53 0.0 1.6 0.00 0.00 0.00 92 1017.3
20260502055005 8 52 0.0 1.6 0.00 0.00 0.00 92 1017.3
20260502054505 7 56 0.0 0.0 0.00 0.00 0.00 92 1017.4
20260502054005 7 56 0.0 0.0 0.00 0.00 0.00 92 1017.3
20260502053505 7 56 0.0 0.0 0.00 0.00 0.00 92 1017.3
20260502053005 7 56 0.0 0.0 0.00 0.00 0.00 92 1017.3
20260502052505 7 56 0.0 1.6 0.00 0.00 0.00 92 1017.3
20260502051505 7 205 0.0 4.8 0.00 0.00 0.00 91 1017.2
20260502050505 7 205 0.0 1.6 0.00 0.00 0.00 91 1017.1
20260502050005 7 205 0.0 1.6 0.00 0.00 0.00 91 1017.3
20260502045505 7 205 0.0 1.6 0.00 0.00 0.00 91 1017.2
20260502045005 7 205 0.0 0.0 0.00 0.00 0.00 91 1017.2
20260502044005 7 205 0.0 0.0 0.00 0.00 0.00 91 1017.2
20260502043505 7 205 0.0 0.0 0.00 0.00 0.00 91 1017.2
20260502043005 7 205 0.0 0.0 0.00 0.00 0.00 91 1017.2
20260502042505 7 201 0.0 0.0 0.00 0.00 0.00 91 1017.1
20260502041505 7 229 0.0 3.2 0.00 0.00 0.00 91 1017.2
20260502041005 7 229 0.0 4.8 0.00 0.00 0.00 91 1017.2
20260502040505 7 229 1.6 6.4 0.00 0.00 0.00 91 1017.3
20260502040005 7 229 3.2 6.4 0.00 0.00 0.00 91 1017.3
20260502035505 7 219 0.0 6.4 0.00 0.00 0.00 91 1017.4
20260502034505 7 220 0.0 4.8 0.00 0.00 0.00 90 1017.4
20260502034005 7 220 3.2 4.8 0.00 0.00 0.00 90 1017.4
20260502033505 7 226 1.6 4.8 0.00 0.00 0.00 90 1017.5
20260502032505 7 226 0.0 4.8 0.00 0.00 0.00 90 1017.5
20260502032005 7 226 0.0 4.8 0.00 0.00 0.00 90 1017.5
20260502031504 7 226 4.8 4.8 0.00 0.00 0.00 90 1017.6
20260502031005 7 226 0.0 0.0 0.00 0.00 0.00 90 1017.6
20260502025505 7 226 0.0 0.0 0.00 0.00 0.00 90 1017.6
20260502025005 7 226 0.0 0.0 0.00 0.00 0.00 90 1017.5
20260502024504 7 226 0.0 0.0 0.00 0.00 0.00 90 1017.5
20260502024005 7 226 0.0 0.0 0.00 0.00 0.00 90 1017.6
20260502023505 7 226 0.0 0.0 0.00 0.00 0.00 90 1017.6
20260502023004 7 226 0.0 0.0 0.00 0.00 0.00 90 1017.6
20260502022504 7 226 0.0 0.0 0.00 0.00 0.00 90 1017.7
20260502022005 7 226 0.0 0.0 0.00 0.00 0.00 90 1017.7
20260502021505 7 226 0.0 0.0 0.00 0.00 0.00 90 1017.7
20260502021004 8 226 0.0 0.0 0.00 0.00 0.00 90 1017.8
20260502015505 8 226 0.0 0.0 0.00 0.00 0.00 90 1017.9
20260502015004 8 226 0.0 0.0 0.00 0.00 0.00 90 1017.9
20260502014504 8 226 0.0 0.0 0.00 0.00 0.00 90 1017.9
20260502014005 8 226 0.0 0.0 0.00 0.00 0.00 90 1017.9
20260502013505 8 226 0.0 0.0 0.00 0.00 0.00 90 1017.9
20260502013005 8 226 0.0 0.0 0.00 0.00 0.00 90 1017.9
20260502012004 8 226 0.0 0.0 0.00 0.00 0.00 90 1017.9
20260502011504 8 226 0.0 0.0 0.00 0.00 0.00 90 1018.0
20260502011004 9 226 0.0 0.0 0.00 0.00 0.00 90 1018.0
20260502010005 9 226 0.0 0.0 0.00 0.00 0.00 90 1018.1
20260502005504 9 226 0.0 0.0 0.00 0.00 0.00 90 1018.1
20260502004504 9 226 0.0 0.0 0.00 0.00 0.00 91 1018.2
20260502004005 9 226 0.0 0.0 0.00 0.00 0.00 91 1018.3
20260502003005 10 226 0.0 0.0 0.00 0.00 0.00 91 1018.4
20260502002505 10 226 0.0 0.0 0.00 0.00 0.00 91 1018.4
20260502002005 10 226 0.0 0.0 0.00 0.00 0.00 91 1018.4
20260502001505 10 226 0.0 0.0 0.00 0.00 0.00 91 1018.6
20260502001005 10 226 0.0 0.0 0.00 0.00 0.00 91 1018.6
20260502000504 10 226 0.0 0.0 0.00 0.00 0.00 91 1018.6
20260501235504 10 226 0.0 0.0 0.00 0.00 0.00 91 1018.7
20260501235004 10 226 0.0 0.0 0.00 0.00 0.00 91 1018.7
20260501234504 10 226 0.0 0.0 0.00 0.00 0.00 90 1018.8
20260501234004 10 226 0.0 0.0 0.00 0.00 0.00 90 1018.8
20260501233504 10 226 0.0 0.0 0.00 0.00 0.00 90 1018.8
20260501233004 10 226 0.0 0.0 0.00 0.00 0.00 90 1018.8
20260501232504 10 226 0.0 1.6 0.00 0.00 0.00 89 1018.8
20260501232004 10 226 0.0 3.2 0.00 0.00 0.00 89 1018.8
20260501231505 10 226 0.0 3.2 0.00 0.00 0.00 89 1018.8
20260501231005 11 225 0.0 4.8 0.00 0.00 0.00 88 1018.8
20260501230504 11 227 1.6 4.8 0.00 0.00 0.00 88 1018.9
20260501225505 11 227 1.6 4.8 0.00 0.00 0.00 88 1018.9
20260501225004 11 227 1.6 4.8 0.00 0.00 0.00 87 1018.8
20260501224005 11 232 0.0 3.2 0.00 0.00 0.00 87 1018.8
20260501223504 11 232 3.2 3.2 0.00 0.00 0.00 86 1018.7
20260501223004 11 232 0.0 1.6 0.00 0.00 0.00 86 1018.6
20260501222504 11 232 0.0 4.8 0.00 0.00 0.00 86 1018.7
20260501221504 11 232 0.0 8.0 0.00 0.00 0.00 85 1018.7
20260501221004 11 232 4.8 8.0 0.00 0.00 0.00 84 1018.7
20260501220505 11 232 1.6 9.7 0.00 0.00 0.00 83 1018.8
20260501220004 12 226 1.6 9.7 0.00 0.00 0.00 83 1018.8
20260501215505 12 215 6.4 8.0 0.00 0.00 0.00 83 1018.9
20260501215004 12 228 3.2 8.0 0.00 0.00 0.00 82 1018.9
20260501214004 12 205 3.2 8.0 0.00 0.00 0.00 82 1018.8
20260501213505 12 196 3.2 8.0 0.00 0.00 0.00 82 1018.8
20260501213004 12 231 0.0 3.2 0.00 0.00 0.00 82 1018.8
20260501212504 12 232 1.6 4.8 0.00 0.00 0.00 81 1018.8
20260501212005 13 232 0.0 6.4 0.00 0.00 0.00 80 1018.6
20260501211504 13 232 0.0 9.7 0.00 0.00 0.00 80 1018.6
20260501211004 13 229 1.6 9.7 0.00 0.00 0.00 80 1018.5
20260501210505 13 234 3.2 9.7 0.00 0.00 0.00 80 1018.5
20260501210004 13 207 1.6 6.4 0.00 0.00 0.00 80 1018.5
20260501205504 13 219 1.6 6.4 0.00 0.00 0.00 80 1018.5
20260501205004 13 209 1.6 4.8 0.00 0.00 0.00 80 1018.5
20260501204505 13 209 1.6 6.4 0.00 0.00 0.00 80 1018.5
20260501204004 13 211 0.0 6.4 0.00 0.00 0.00 80 1018.5
20260501202504 14 212 3.2 6.4 0.00 0.00 0.00 80 1018.5
20260501201504 15 211 4.8 9.7 0.00 0.00 0.00 79 1018.5
20260501201004 15 215 4.8 9.7 0.00 0.00 0.00 79 1018.5
20260501200504 15 239 1.6 6.4 0.00 0.00 0.00 80 1018.4
20260501200005 15 240 4.8 6.4 0.00 0.00 0.00 80 1018.5
20260501195504 15 242 3.2 6.4 0.00 0.00 0.00 79 1018.3
20260501195004 15 254 1.6 6.4 0.00 0.00 0.00 79 1018.3
20260501194504 15 227 3.2 4.8 0.00 0.00 0.00 78 1018.2
20260501194004 15 211 3.2 6.4 0.00 0.00 0.00 77 1018.2
20260501193504 15 208 1.6 6.4 0.00 0.00 0.00 77 1018.2
20260501193004 15 209 0.0 6.4 0.00 0.00 0.00 76 1018.1
20260501192504 15 208 1.6 6.4 0.00 0.00 0.00 76 1018.1
20260501192004 16 208 1.6 6.4 0.00 0.00 0.00 75 1018.1
20260501191004 16 212 1.6 6.4 0.00 0.00 0.00 73 1018.1
20260501190504 16 214 4.8 8.0 0.00 0.00 0.00 72 1018.1
20260501190004 16 225 1.6 8.0 0.00 0.00 0.00 71 1018.0
20260501185504 16 227 4.8 8.0 0.00 0.00 0.00 71 1017.8
20260501185004 16 241 4.8 9.7 0.00 0.00 0.00 71 1017.8
20260501184504 16 226 3.2 12.9 0.00 0.00 0.00 70 1017.8
20260501184004 16 226 6.4 12.9 0.00 0.00 0.00 70 1017.8
20260501183504 17 239 6.4 12.9 0.00 0.00 0.00 70 1017.8
20260501183004 17 188 0.0 11.3 0.00 0.00 0.00 70 1017.8
20260501182004 17 211 4.8 12.9 0.00 0.00 0.00 69 1017.8
20260501181504 17 207 4.8 12.9 0.00 0.00 0.00 69 1017.8
20260501181004 17 210 6.4 12.9 0.00 0.00 0.00 69 1017.8
20260501180504 17 188 6.4 16.1 0.00 0.00 0.00 69 1017.8
20260501180004 17 178 6.4 16.1 0.00 0.00 0.00 70 1017.8
20260501175504 17 204 9.7 12.9 0.00 0.00 0.00 70 1017.8
20260501175004 18 209 4.8 16.1 0.00 0.00 0.00 70 1017.9
20260501174004 18 241 9.7 16.1 0.00 0.00 0.00 70 1017.8
20260501173504 18 159 8.0 20.9 0.00 0.00 0.00 70 1017.7
20260501173004 18 204 14.5 20.9 0.00 0.00 0.00 70 1017.7
20260501172504 18 196 8.0 20.9 0.00 0.00 0.00 71 1017.8
20260501172004 18 255 8.0 20.9 0.00 0.00 0.00 71 1017.8
20260501170504 19 166 9.7 19.3 0.00 0.00 0.00 69 1017.8
20260501170005 19 192 11.3 20.9 0.00 0.00 0.00 70 1017.8
20260501165504 19 267 11.3 20.9 0.00 0.00 0.00 69 1017.7
20260501165004 20 190 20.9 20.9 0.00 0.00 0.00 68 1017.7
20260501163504 19 242 12.9 16.1 0.00 0.00 0.00 70 1017.7
20260501163004 19 227 6.4 19.3 0.00 0.00 0.00 71 1017.8
20260501162504 19 236 16.1 20.9 0.00 0.00 0.00 71 1017.8
20260501162004 19 266 11.3 20.9 0.00 0.00 0.00 70 1017.8